Location: Beang
(6.6177°N, 10.9863°W)
Time: 14:50:39
(UTC+00:00)

Atlas Centaur 2 - Pass Details

Date: 07 June 2020
Orbit: 459 x 1310 km, 30.4° (Epoch: 07 July)

Event Time Altitude Azimuth Distance (km) Brightness Sun altitude
Exits shadow 03:51:06 28° 107° (ESE) 1,544 3.8 -35.4°
Drops below altitude 10° 03:54:04 10° 83° (E) 2,334 5.1 -34.8°
Sets 03:56:25 0° 75° (ENE) 3,130 6.1 -34.3°
